[[{"header":{"parameterUnit":"m.s-1","parameterCategory":2,"la1":30.2992,"la2":30.254,"lo1":-89.0895,"lo2":-89.0443,"dy":0.0025,"dx":0.0025,"nx":19,"ny":19,"refTime":"2026-05-15T09:00:00:Z","depth":"0","parameterNumber":2,"parameterNumberName":"U-component_of_CURRENTS"},"data":[0,0,0,0.3452,0.3454,0.3571,0.3571,0.3728,0.3729,0,0,0,0,0,0,0,0,0,0,0,0.3406,0.3407,0.3451,0.3454,0.3571,0.3571,0.3728,0.3729,0,0,0,0,0,0,0,0,0,0,0,0.3406,0.3407,0.3408,0.3455,0.3571,0.3571,0.3727,0.3638,0,0,0,0,0,0,0,0,0,0,0.3523,0.3475,0.3407,0.3408,0.3455,0.3571,0.3571,0.3633,0.3643,0.3677,0,0.3695,0,0.3719,0.374,0.3741,0,0,0,0.3454,0.3467,0.3505,0.3408,0.3456,0.357,0.3518,0.3639,0.365,0.369,0.3697,0.3703,0.3722,0.3741,0.3742,0.4035,0.4037,0,0,0.3448,0.3424,0.3497,0.3512,0.3487,0.3515,0.3522,0.3645,0.3654,0.3698,0.3707,0.3724,0.3742,0.3743,0.4033,0.4035,0,0,0,0.3429,0.3419,0.3454,0.3505,0.3528,0.3518,0.3526,0.3648,0.3662,0.3709,0.3726,0.3743,0.3745,0.403,0.4034,0.4241,0,0,0,0.3425,0.3408,0.3451,0.3437,0.3526,0.3588,0.3526,0.3653,0.3668,0.3725,0.3743,0.3747,0.4028,0.4032,0.4231,0.4261,0,0,0,0.3401,0.3406,0.3421,0.3436,0.3488,0.3586,0.3607,0.3657,0.3679,0.3741,0.3747,0.4027,0.4031,0.4221,0.4248,0.4315,0,0,0,0.337,0.3403,0.342,0.3469,0.3486,0.3613,0.3606,0.3659,0.3705,0.3744,0.4028,0.4033,0.4218,0.4239,0.4307,0.4321,0.4359,0,0,0.3395,0.3405,0.3437,0.3456,0.3587,0.3596,0.3793,0.3812,0.3808,0.3982,0.3989,0.4234,0.4247,0.4313,0.4598,0.4627,0,0,0,0.3436,0.348,0.3514,0.3597,0.3671,0.3857,0.3884,0.3959,0.4126,0.3863,0.4274,0.4274,0.4309,0.4304,0.4329,0.4309,0.4055,0.4055,0.4054,0.3471,0.3532,0.3655,0.3782,0.3874,0.4031,0.4175,0.4304,0.4264,0.439,0.4476,0.4705,0.4709,0.4726,0.471,0.4544,0.4545,0.4545,0.4546,0.3627,0.3717,0.3834,0.3981,0.4149,0.4317,0.4549,0.4578,0.4799,0.4736,0.4761,0.4564,0.4764,0.4737,0.456,0.4558,0.4556,0.4554,0.4553,0.3734,0.3776,0.3894,0.4078,0.4286,0.4453,0.465,0.4804,0.4941,0.5026,0.4945,0.494,0.4876,0.5031,0.5031,0.5032,0.5032,0.5032,0.5033,0.3759,0.3877,0.3958,0.4133,0.4213,0.4387,0.4672,0.4833,0.5058,0.5134,0.5133,0.4979,0.485,0.4786,0.5041,0.504,0.5039,0.5038,0.5037,0.3815,0.3799,0.3911,0.3981,0.4135,0.4196,0.4502,0.4838,0.5046,0.5162,0.5243,0.5188,0.5093,0.5072,0.5013,0.5311,0.5311,0.5311,0.5311,0.3756,0.3784,0.3836,0.3888,0.3984,0.4112,0.4255,0.4619,0.5081,0.5279,0.5349,0.5278,0.5267,0.5176,0.5152,0.5091,0.5403,0.5403,0.5403,0.3723,0.3755,0.3746,0.3804,0.3895,0.399,0.4015,0.4285,0.5043,0.5403,0.5333,0.5329,0.5215,0.5199,0.5036,0.5004,0.4894,0,0]},{"header":{"parameterUnit":"m.s-1","parameterCategory":2,"la1":30.2992,"la2":30.254,"lo1":-89.0895,"lo2":-89.0443,"dy":0.0025,"dx":0.0025,"nx":19,"ny":19,"refTime":"2026-05-15T09:00:00:Z","depth":"0","parameterNumber":3,"parameterNumberName":"V-component_of_CURRENTS"},"data":[0,0,0,0.0115,0.0115,0.0044,0.0043,-0.0059,-0.006,0,0,0,0,0,0,0,0,0,0,0,0.0138,0.0138,0.0116,0.0114,0.0044,0.0043,-0.0059,-0.006,0,0,0,0,0,0,0,0,0,0,0,0.0138,0.0138,0.0138,0.0114,0.0044,0.0043,-0.0059,-0.0007,0,0,0,0,0,0,0,0,0,0,0.0061,0.0096,0.0138,0.0138,0.0114,0.0044,0.0043,-0.0005,-0.001,-0.0025,0,-0.0024,0,-0.0035,-0.0065,-0.0065,0,0,0,0.0095,0.0101,0.0081,0.0138,0.0114,0.0044,0.007,-0.0008,-0.0014,-0.0032,-0.0025,-0.0029,-0.0037,-0.0066,-0.0066,0.0087,0.0089,0,0,0.0099,0.0122,0.0085,0.0077,0.011,0.0073,0.0068,-0.0012,-0.0011,-0.0026,-0.0032,-0.0039,-0.0066,-0.0067,0.0085,0.0087,0,0,0,0.0123,0.0125,0.0106,0.0081,0.0074,0.0071,0.0066,-0.0008,-0.0014,-0.0033,-0.004,-0.0067,-0.0068,0.0082,0.0086,0.0434,0,0,0,0.0125,0.014,0.0108,0.012,0.0077,0.0036,0.0072,-0.0009,-0.0018,-0.0039,-0.0067,-0.0068,0.008,0.0084,0.0419,0.0588,0,0,0,0.0139,0.0142,0.0138,0.0122,0.01,0.0037,0.0025,-0.0012,-0.0022,-0.0065,-0.0069,0.0078,0.0083,0.0406,0.0564,0.0673,0,0,0,0.0157,0.0187,0.0139,0.0176,0.0101,0.0151,0.0026,0.0018,-0.0008,-0.0067,0.008,0.0085,0.0402,0.055,0.066,0.0774,0.0845,0,0,0.021,0.0193,0.0219,0.0176,0.0288,0.0158,0.0322,0.0205,0.0079,0.0095,0.0098,0.0424,0.0563,0.067,0.1086,0.1149,0,0,0,0.0248,0.0302,0.0311,0.0369,0.0357,0.0497,0.0374,0.0369,0.0404,0.0092,0.0437,0.0513,0.0569,0.061,0.0661,0.035,0.011,0.011,0.0109,0.0408,0.0426,0.0573,0.0643,0.0692,0.0724,0.0816,0.0809,0.0611,0.0706,0.0807,0.1144,0.1198,0.1235,0.0916,0.0806,0.0807,0.0808,0.0809,0.0669,0.0824,0.088,0.1045,0.1151,0.1289,0.1345,0.1268,0.1365,0.1164,0.1199,0.099,0.1312,0.095,0.0831,0.0827,0.0825,0.0822,0.0821,0.0917,0.1007,0.1104,0.1361,0.1605,0.166,0.192,0.1854,0.1711,0.1788,0.1674,0.1667,0.1331,0.1749,0.175,0.1751,0.1753,0.1754,0.1754,0.1153,0.1256,0.1438,0.1675,0.183,0.2083,0.2221,0.2286,0.2229,0.2082,0.2079,0.1443,0.1428,0.137,0.1775,0.1771,0.1769,0.1767,0.1765,0.1451,0.1431,0.1686,0.1843,0.2189,0.2485,0.2609,0.2759,0.2729,0.2722,0.2023,0.2197,0.2074,0.2029,0.1983,0.2523,0.2522,0.2523,0.2523,0.1582,0.1615,0.1871,0.2097,0.2421,0.2668,0.3043,0.3146,0.273,0.2425,0.2158,0.1943,0.1925,0.1773,0.1735,0.1672,0.212,0.2119,0.2118,0.1714,0.1767,0.1951,0.2158,0.2506,0.2862,0.3232,0.3459,0.274,0.2058,0.1714,0.1732,0.1356,0.1353,0.1048,0.1019,0.089,0,0]}],[{"header":{"parameterUnit":"m.s-1","parameterCategory":2,"la1":30.2992,"la2":30.254,"lo1":-89.0895,"lo2":-89.0443,"dy":0.0025,"dx":0.0025,"nx":19,"ny":19,"refTime":"2026-05-15T09:00:00:Z","depth":"2","parameterNumber":2,"parameterNumberName":"U-component_of_CURRENTS"},"data":[0,0,0,0.2876,0.2879,0.3034,0.3035,0.3185,0.3187,0,0,0,0,0,0,0,0,0,0,0,0.2797,0.2797,0.2875,0.288,0.3034,0.3035,0.3185,0.3187,0,0,0,0,0,0,0,0,0,0,0,0.2796,0.2797,0.2798,0.288,0.3034,0.3035,0.3185,0.3075,0,0,0,0,0,0,0,0,0,0,0.2929,0.2891,0.2797,0.2798,0.2882,0.3034,0.3035,0.3071,0.3082,0.3107,0,0.3129,0,0.3181,0.3197,0.3198,0,0,0,0.2862,0.2881,0.291,0.2799,0.2883,0.3034,0.296,0.3077,0.3091,0.3122,0.3132,0.3139,0.3184,0.3198,0.3199,0.3423,0.3424,0,0,0.2854,0.2839,0.2901,0.2918,0.2922,0.2955,0.2965,0.3086,0.3105,0.3133,0.3143,0.3186,0.3199,0.3201,0.3422,0.3423,0,0,0,0.2841,0.2833,0.286,0.291,0.2954,0.296,0.2971,0.31,0.3105,0.3145,0.3188,0.32,0.3202,0.342,0.3422,0.3619,0,0,0,0.2835,0.2827,0.2856,0.2851,0.2952,0.3043,0.2982,0.3095,0.3112,0.3187,0.32,0.3204,0.3419,0.3422,0.361,0.3637,0,0,0,0.279,0.2824,0.2837,0.2849,0.2926,0.3042,0.3055,0.31,0.3139,0.3198,0.3204,0.3418,0.3421,0.3603,0.3626,0.3701,0,0,0,0.2774,0.2823,0.2837,0.2909,0.2925,0.3047,0.3055,0.3148,0.32,0.3201,0.3419,0.3422,0.3601,0.3619,0.3694,0.3529,0.3547,0,0,0.2827,0.2829,0.2871,0.2888,0.3027,0.3025,0.3228,0.3289,0.3257,0.3369,0.3375,0.3613,0.3625,0.37,0.3703,0.3715,0,0,0,0.2882,0.2923,0.296,0.3049,0.3117,0.3262,0.3334,0.34,0.3523,0.3309,0.3619,0.3619,0.3661,0.3547,0.3558,0.3437,0.3436,0.3436,0.3436,0.294,0.2992,0.3105,0.3202,0.3297,0.3451,0.357,0.3672,0.3647,0.3739,0.3788,0.3979,0.3865,0.3869,0.3825,0.3826,0.3827,0.3827,0.3828,0.3131,0.3204,0.328,0.3419,0.3522,0.3678,0.3874,0.3911,0.4078,0.3999,0.4032,0.3768,0.3892,0.3844,0.3841,0.3838,0.3837,0.3836,0.3835,0.3202,0.3245,0.3323,0.3541,0.3644,0.3801,0.3991,0.4122,0.4202,0.4268,0.4083,0.4076,0.4058,0.4282,0.4282,0.4283,0.4283,0.4284,0.4284,0.3265,0.3333,0.34,0.362,0.3641,0.3823,0.401,0.4128,0.4219,0.4235,0.4233,0.413,0.4115,0.4081,0.4292,0.4291,0.429,0.4289,0.4288,0.3297,0.3283,0.34,0.3431,0.3574,0.3582,0.3818,0.3954,0.4106,0.4116,0.4214,0.4213,0.4111,0.4098,0.4061,0.4255,0.4255,0.4255,0.4255,0.3203,0.3266,0.3245,0.326,0.3386,0.3437,0.3319,0.3425,0.372,0.3834,0.3851,0.3711,0.3723,0.3589,0.3587,0.3535,0.3592,0.3591,0.3589,0.3118,0.3139,0.3038,0.3137,0.322,0.3204,0.2934,0.2831,0.3199,0.3557,0.3671,0.4223,0.406,0.4062,0.3882,0.387,0.3796,0,0]},{"header":{"parameterUnit":"m.s-1","parameterCategory":2,"la1":30.2992,"la2":30.254,"lo1":-89.0895,"lo2":-89.0443,"dy":0.0025,"dx":0.0025,"nx":19,"ny":19,"refTime":"2026-05-15T09:00:00:Z","depth":"2","parameterNumber":3,"parameterNumberName":"V-component_of_CURRENTS"},"data":[0,0,0,-0.0028,-0.0028,-0.0096,-0.0096,-0.0226,-0.0227,0,0,0,0,0,0,0,0,0,0,0,-0.001,-0.001,-0.0028,-0.0028,-0.0096,-0.0096,-0.0226,-0.0227,0,0,0,0,0,0,0,0,0,0,0,-0.001,-0.001,-0.001,-0.0029,-0.0095,-0.0096,-0.0226,-0.0169,0,0,0,0,0,0,0,0,0,0,-0.0101,-0.0069,-0.001,-0.001,-0.0029,-0.0095,-0.0096,-0.0166,-0.0173,-0.0201,0,-0.0199,0,-0.0205,-0.0235,-0.0235,0,0,0,-0.0051,-0.0063,-0.0077,-0.001,-0.0029,-0.0095,-0.0072,-0.017,-0.0177,-0.021,-0.0201,-0.0206,-0.0207,-0.0235,-0.0236,-0.0232,-0.0231,0,0,-0.0047,-0.0032,-0.0072,-0.0081,-0.0032,-0.0069,-0.0073,-0.0174,-0.0179,-0.0202,-0.0208,-0.0209,-0.0236,-0.0237,-0.0232,-0.0231,0,0,0,-0.0021,-0.0029,-0.0041,-0.0076,-0.0079,-0.0071,-0.0076,-0.0175,-0.0177,-0.021,-0.0211,-0.0237,-0.0238,-0.0233,-0.0232,-0.0054,0,0,0,-0.002,-0.0012,-0.0038,-0.0032,-0.0076,-0.012,-0.0074,-0.017,-0.0181,-0.021,-0.0237,-0.0239,-0.0234,-0.0233,-0.0061,0.0028,0,0,0,-0.0009,-0.0011,-0.0013,-0.003,-0.0048,-0.0119,-0.0128,-0.0173,-0.0181,-0.0235,-0.024,-0.0235,-0.0233,-0.0067,0.0016,0.0075,0,0,0,-0.0,0.002,-0.0013,0.0011,-0.0047,-0.0033,-0.0127,-0.0146,-0.0182,-0.0237,-0.0234,-0.0232,-0.0069,0.0009,0.0069,0.0071,0.0101,0,0,0.0035,0.0024,0.0041,0.0011,0.0058,-0.0027,0.0029,-0.007,-0.0159,-0.0211,-0.0211,-0.0059,0.0015,0.0074,0.0194,0.0221,0,0,0,0.006,0.0084,0.0087,0.0106,0.0091,0.0122,0.0033,0.0004,-0.0036,-0.0167,-0.0065,-0.0024,0.0007,-0.0006,0.0016,-0.0222,-0.0222,-0.0223,-0.0223,0.0137,0.0143,0.02,0.0219,0.0239,0.0219,0.0229,0.0176,0.0068,0.0086,0.0116,0.0278,0.0267,0.0283,0.0102,0.0103,0.0104,0.0104,0.0105,0.0259,0.0275,0.0329,0.0389,0.0408,0.0451,0.0442,0.0385,0.0387,0.0278,0.0298,0.0177,0.0318,0.0119,0.0116,0.0114,0.0113,0.0112,0.0111,0.0313,0.0308,0.037,0.0455,0.0526,0.0554,0.062,0.062,0.0559,0.0592,0.0511,0.0507,0.0379,0.0586,0.0587,0.0588,0.0588,0.0589,0.0589,0.0292,0.0347,0.0373,0.047,0.0509,0.0608,0.0692,0.0755,0.0801,0.0712,0.0711,0.0439,0.0424,0.0405,0.06,0.0598,0.0597,0.0596,0.0595,0.0231,0.0219,0.0302,0.0338,0.0469,0.0681,0.0737,0.0938,0.0922,0.0973,0.0756,0.0748,0.0682,0.0661,0.0647,0.0893,0.0893,0.0893,0.0893,0.0115,0.0139,0.0216,0.0307,0.0459,0.0704,0.1003,0.1097,0.106,0.0954,0.0951,0.0851,0.0837,0.0771,0.0748,0.073,0.0999,0.0999,0.1,0.0006,0.0078,0.0126,0.029,0.0485,0.0843,0.1301,0.1434,0.117,0.1003,0.0962,0.0901,0.074,0.0725,0.06,0.0573,0.0535,0,0]}],[{"header":{"parameterUnit":"m.s-1","parameterCategory":2,"la1":30.2992,"la2":30.254,"lo1":-89.0895,"lo2":-89.0443,"dy":0.0025,"dx":0.0025,"nx":19,"ny":19,"refTime":"2026-05-15T09:00:00:Z","depth":"4","parameterNumber":2,"parameterNumberName":"U-component_of_CURRENTS"},"data":[0,0,0,0.1606,0.161,0.1826,0.1826,0.2052,0.2054,0,0,0,0,0,0,0,0,0,0,0,0.153,0.1532,0.1605,0.1611,0.1826,0.1826,0.2052,0.2054,0,0,0,0,0,0,0,0,0,0,0,0.153,0.1531,0.1534,0.1612,0.1825,0.1827,0.2051,0.1901,0,0,0,0,0,0,0,0,0,0,0.1698,0.1644,0.1531,0.1534,0.1613,0.1825,0.1827,0.1894,0.191,0.1941,0,0.1984,0,0.2027,0.2068,0.2069,0,0,0,0.1608,0.1631,0.1683,0.1534,0.1615,0.1825,0.1728,0.1903,0.1921,0.1962,0.1988,0.1997,0.2031,0.2069,0.2071,0.2302,0.2303,0,0,0.1596,0.1575,0.167,0.1694,0.1684,0.1721,0.1735,0.1915,0.1942,0.1989,0.2003,0.2034,0.2071,0.2073,0.2301,0.2302,0,0,0,0.1564,0.1567,0.1615,0.1684,0.173,0.1727,0.1743,0.1934,0.1949,0.2005,0.2037,0.2072,0.2075,0.23,0.2302,0.2434,0,0,0,0.1557,0.1548,0.161,0.16,0.1726,0.1844,0.1758,0.1936,0.1958,0.2036,0.2072,0.2077,0.2299,0.2301,0.2428,0.2429,0,0,0,0.1518,0.1545,0.1571,0.1599,0.1693,0.1842,0.1868,0.1942,0.1978,0.2069,0.2077,0.2299,0.2301,0.2423,0.2421,0.2448,0,0,0,0.1485,0.1521,0.1571,0.1632,0.1691,0.1822,0.1868,0.1981,0.206,0.2073,0.2299,0.2302,0.2421,0.2417,0.2444,0.2113,0,0,0,0.1498,0.1523,0.1556,0.1606,0.1719,0.1791,0.1951,0.207,0.2105,0.2234,0.224,0.243,0.2421,0.2447,0.2248,0,0,0,0,0.1539,0.1566,0.1605,0.1698,0.1799,0.1931,0.2059,0.2146,0.2315,0.2165,0.2438,0.2427,0.244,0.2237,0.2313,0.2312,0.2312,0.2312,0.2312,0.1535,0.1595,0.1663,0.176,0.1871,0.2058,0.218,0.2326,0.2378,0.2482,0.2545,0.2659,0.2454,0.2583,0.2584,0.2584,0.2585,0.2585,0.2586,0.1534,0.154,0.1698,0.178,0.1949,0.2122,0.236,0.2452,0.2668,0.2673,0.2682,0.2402,0.2599,0.2596,0.2594,0.2593,0.2592,0.2591,0.259,0.1463,0.1463,0.1569,0.1719,0.1933,0.2152,0.2341,0.2544,0.2727,0.2808,0.2567,0.2718,0.2693,0.2835,0.2836,0.2836,0.2836,0.2836,0.2836,0.1302,0.1402,0.1447,0.1625,0.1751,0.1974,0.2324,0.2457,0.2667,0.2632,0.2841,0.2741,0.2733,0.2705,0.2839,0.2839,0.2838,0.2838,0.2838,0.1101,0.1163,0.1233,0.1318,0.1568,0.1707,0.2049,0.2288,0.2399,0.2422,0.252,0.2535,0.2434,0.2432,0.2389,0.2435,0.2431,0.2427,0,0.0931,0.0967,0.1049,0.1141,0.1274,0.1536,0.1674,0.1909,0.2139,0.2077,0.2364,0.2465,0.2477,0.235,0.2343,0.2284,0,0,0,0.0772,0.0851,0.0847,0.0997,0.1135,0.1418,0.172,0.1757,0.2105,0.2139,0.2331,0.2356,0.2586,0.2848,0.2725,0.2715,0.2663,0,0]},{"header":{"parameterUnit":"m.s-1","parameterCategory":2,"la1":30.2992,"la2":30.254,"lo1":-89.0895,"lo2":-89.0443,"dy":0.0025,"dx":0.0025,"nx":19,"ny":19,"refTime":"2026-05-15T09:00:00:Z","depth":"4","parameterNumber":3,"parameterNumberName":"V-component_of_CURRENTS"},"data":[0,0,0,0.0065,0.0065,0.0016,0.0016,-0.0105,-0.0106,0,0,0,0,0,0,0,0,0,0,0,0.0075,0.0074,0.0066,0.0065,0.0016,0.0016,-0.0105,-0.0106,0,0,0,0,0,0,0,0,0,0,0,0.0075,0.0075,0.0074,0.0065,0.0017,0.0016,-0.0104,-0.0058,0,0,0,0,0,0,0,0,0,0,-0.0005,0.0022,0.0075,0.0074,0.0065,0.0017,0.0016,-0.0055,-0.0061,-0.0093,0,-0.0092,0,-0.0091,-0.0113,-0.0114,0,0,0,0.0045,0.0027,0.0015,0.0074,0.0065,0.0017,0.0033,-0.0058,-0.0064,-0.0101,-0.0094,-0.0098,-0.0093,-0.0114,-0.0115,-0.0182,-0.0182,0,0,0.0048,0.0059,0.002,0.0012,0.0062,0.0035,0.0032,-0.0061,-0.0066,-0.0094,-0.01,-0.0095,-0.0115,-0.0116,-0.0182,-0.0182,0,0,0,0.0069,0.0061,0.0052,0.0016,0.0018,0.0034,0.003,-0.0063,-0.0064,-0.0101,-0.0097,-0.0116,-0.0117,-0.0182,-0.0182,-0.0142,0,0,0,0.007,0.0075,0.0054,0.0059,0.002,-0.0013,0.0031,-0.0058,-0.0068,-0.0096,-0.0116,-0.0118,-0.0183,-0.0182,-0.0143,-0.0104,0,0,0,0.0075,0.0075,0.0073,0.006,0.0049,-0.0011,-0.0019,-0.0061,-0.0065,-0.0114,-0.0118,-0.0183,-0.0182,-0.0144,-0.0107,-0.0084,0,0,0,0.0082,0.0096,0.0074,0.0092,0.005,0.0044,-0.0019,-0.0035,-0.0068,-0.0116,-0.0183,-0.0182,-0.0145,-0.0109,-0.0086,0.0025,0,0,0,0.0107,0.0099,0.0111,0.0092,0.0096,0.0048,0.0032,-0.0038,-0.008,-0.016,-0.0162,-0.0143,-0.0107,-0.0085,0.0039,0,0,0,0,0.0125,0.0128,0.0128,0.0124,0.011,0.0071,0.0014,-0.0025,-0.0093,-0.0096,-0.0149,-0.0127,-0.0114,-0.0056,-0.0181,-0.0181,-0.0181,-0.0181,-0.0181,0.0146,0.0145,0.0157,0.0144,0.0133,0.0081,0.0046,-0.0023,-0.0068,-0.0089,-0.0099,-0.0058,0.0004,-0.0118,-0.0117,-0.0117,-0.0117,-0.0117,-0.0117,0.0168,0.018,0.0166,0.0177,0.0141,0.0121,0.0048,0.0011,-0.0034,-0.0076,-0.0066,-0.0023,-0.0113,-0.0114,-0.0114,-0.0115,-0.0115,-0.0115,-0.0115,0.0167,0.018,0.0181,0.0207,0.0208,0.0171,0.0195,0.0112,0.0018,0.0024,0.0086,-0.0025,-0.0022,0.003,0.003,0.003,0.003,0.0031,0.0031,0.0178,0.0185,0.0246,0.0266,0.0322,0.0348,0.0305,0.0283,0.0173,0.0162,0.0049,-0.0009,-0.0014,-0.0013,0.0035,0.0034,0.0034,0.0033,0.0033,0.0225,0.0254,0.0347,0.0417,0.0542,0.0569,0.0525,0.0437,0.0427,0.0363,0.0224,0.0213,0.0213,0.0203,0.0211,0.0328,0.0329,0.0331,0,0.0295,0.0302,0.0478,0.0617,0.0736,0.0715,0.0752,0.0673,0.0485,0.0488,0.04,0.0247,0.0237,0.024,0.0233,0.0245,0,0,0,0.0383,0.0421,0.0568,0.0681,0.0829,0.0804,0.0755,0.0722,0.0524,0.0496,0.0372,0.0361,0.0217,0.0048,0.0022,0.0016,0.0015,0,0]}]]